This is the latest recevied weather packets stored in our database for station/object KA2FNK. If no packets are shown the sender has not sent any weather packets the latest 10 day(s).
| Time | Temp. | Humidity | Pressure | Rain* | Wind** | Luminosity | Snow |
|---|---|---|---|---|---|---|---|
| 1777323704 | 20.56° C | 69% | 1004.4 hPa | 0 mm | - | - | - |
| 1777323402 | 20° C | 69% | 1004.4 hPa | 0 mm | - | - | - |
| 1777323102 | 20° C | 69% | 1004.3 hPa | 0 mm | - | - | - |
| 1777322801 | 20.56° C | 67% | 1004.1 hPa | 0 mm | - | - | - |
| 1777322500 | 20.56° C | 70% | 1003.8 hPa | 0 mm | - | - | - |
| 1777322199 | 21.11° C | - | 1003.7 hPa | 0 mm | - | - | - |
| 1777321898 | 21.67° C | 65% | 1003.4 hPa | 0 mm | - | - | - |
| 1777321597 | 21.67° C | 66% | 1003.2 hPa | 0 mm | - | - | - |
| 1777321295 | 21.67° C | 66% | 1003.1 hPa | 0 mm | - | - | - |
| 1777320995 | 21.67° C | 66% | 1003.1 hPa | 0 mm | - | - | - |
| 1777320694 | 21.67° C | 66% | 1003 hPa | 0 mm | - | - | - |
| 1777320392 | 21.67° C | 65% | 1002.8 hPa | 0 mm | - | - | - |
| 1777320091 | 21.67° C | 66% | 1002.8 hPa | 0 mm | - | - | - |
| 1777319790 | 21.67° C | 65% | 1002.9 hPa | 0 mm | - | - | - |
| 1777319489 | 22.22° C | 69% | 1002.9 hPa | 0 mm | - | - | - |
| 1777319189 | 22.22° C | 67% | 1002.8 hPa | 0 mm | - | - | - |
| 1777318888 | 22.22° C | 69% | 1002.6 hPa | 0 mm | - | - | - |
| 1777318587 | 21.67° C | 67% | 1002.6 hPa | 0 mm | - | - | - |
| 1777318286 | 22.22° C | 68% | 1002.7 hPa | 0 mm | - | - | - |
| 1777317985 | 22.22° C | 66% | 1002.6 hPa | 0 mm | - | - | - |
| 1777317684 | 22.22° C | 66% | 1002.5 hPa | 0 mm | - | - | - |
| 1777317383 | 22.22° C | 63% | 1002.5 hPa | 0 mm | - | - | - |
| 1777317082 | 22.22° C | 62% | 1002.5 hPa | 0 mm | - | - | - |
| 1777316781 | 22.78° C | 69% | 1002.5 hPa | 0 mm | - | - | - |
| 1777316480 | 22.22° C | 64% | 1002.5 hPa | 0 mm | - | - | - |
* Rain latest hour (hover to see other rain measurements)
** Current wind speed in m/s (hover to see current wind gust speed)